Change the Weather History Date:

Saturday, February 23, 2013

  Actual Average Record
Temperature  
Mean Temperature 51 °F 45 °F  
Max Temperature 55 °F 55 °F 77 °F (1975)
Min Temperature 47 °F 35 °F 13 °F (1936)
Degree Days  
Heating Degree Days 14 20  
Month to date heating degree days 464 488  
Since 1 July heating degree days 1927 2375  
Cooling Degree Days 0 0  
Month to date cooling degree days 0 0  
Year to date cooling degree days 5 1  
Moisture  
Dew Point 47 °F    
Average Humidity 87    
Maximum Humidity 93    
Minimum Humidity 80    
Precipitation  
Precipitation 0.58 in 0.11 in 1.80 in (1971)
Month to date precipitation 2.29 2.63  
Year to date precipitation 3.69 5.89  
Snow  
Snow 0.00 in - - ()
Month to date snowfall T  
Since 1 July snowfall T  
Snow Depth 0.00 in    
Sea Level Pressure  
Sea Level Pressure 29.91 in    
Wind  
Wind Speed 7 mph (WNW)    
Max Wind Speed 15 mph    
Max Gust Speed 17 mph    
Visibility 6 miles    
Events Rain    
T = Trace of Precipitation, MM = Missing Value Source: NWS Daily Summary

Daily Weather History Graph

Daily Weather History Graph

Search for Another Location

Airport or City:

Trip Planner

Search our weather history database for the weather conditions in past years. The results will help you decide how hot, cold, wet, or windy it might be!

Date:

Astronomy

Feb. 23, 2013 Rise Set
Actual Time 6:42 AM EST 5:53 PM EST
Civil Twilight 6:16 AM EST 6:19 PM EST
Nautical Twilight 5:46 AM EST 6:49 PM EST
Astronomical Twilight 5:16 AM EST 7:19 PM EST
Moon 4:03 PM EST (2/23) 5:01 AM EST (2/23)
Length of Visible Light 12h 03m
Length of Day
11h 11m
Waxing Gibbous, 95% of the Moon is Illuminated
Feb 23
Waxing Gibbous
Feb 25
Full
Mar 4
Last Quarter
Mar 11
New
Mar 19
First Quarter

Hourly Weather History & Observations

Time (EST) Temp. Windchill Dew Point Humidity Pressure Visibility Wind Dir Wind Speed Gust Speed Precip Events Conditions
12:11 AM 48.2 °F - 44.6 °F 87% 30.14 in 8.0 mi NNE 6.9 mph - N/A   Overcast
12:54 AM 50.0 °F - 46.0 °F 86% 30.11 in 6.0 mi East 11.5 mph - N/A   Overcast
1:33 AM 51.8 °F - 48.2 °F 88% 30.08 in 10.0 mi ESE 10.4 mph - 0.00 in Rain Light Rain
1:54 AM 52.0 °F - 48.0 °F 86% 30.06 in 7.0 mi ESE 9.2 mph - 0.01 in Rain Light Rain
2:29 AM 53.6 °F - 48.2 °F 82% 30.05 in 8.0 mi SE 9.2 mph - 0.00 in   Overcast
2:54 AM 53.1 °F - 50.0 °F 89% 30.04 in 10.0 mi SE 6.9 mph - 0.00 in Rain Light Rain
3:54 AM 55.0 °F - 51.1 °F 86% 30.01 in 10.0 mi ESE 10.4 mph - 0.01 in Rain Light Rain
4:54 AM 54.0 °F - 51.1 °F 90% 29.98 in 10.0 mi ESE 9.2 mph - 0.00 in Rain Light Rain
5:07 AM 53.6 °F - 51.8 °F 94% 29.98 in 7.0 mi Calm Calm - 0.01 in Rain Light Rain
5:19 AM 53.6 °F - 50.0 °F 88% 29.98 in 6.0 mi Calm Calm - 0.02 in Rain Light Rain
5:54 AM 54.0 °F - 50.0 °F 86% 29.96 in 2.5 mi East 3.5 mph - 0.05 in Rain Light Rain
6:01 AM 55.4 °F - 51.8 °F 88% 29.96 in 4.0 mi East 3.5 mph - 0.00 in Rain Light Rain
6:24 AM 53.6 °F - 50.0 °F 88% 29.95 in 1.8 mi North 4.6 mph - 0.01 in Rain Light Rain
6:38 AM 53.6 °F - 50.0 °F 88% 29.95 in 1.5 mi Calm Calm - 0.04 in Rain Light Rain
6:47 AM 53.6 °F - 50.0 °F 88% 29.95 in 2.0 mi Calm Calm - 0.06 in Rain Rain
6:54 AM 54.0 °F - 50.0 °F 86% 29.95 in 1.5 mi NNW 5.8 mph - 0.13 in Rain Heavy Rain
7:06 AM 53.6 °F - 51.8 °F 94% 29.95 in 2.0 mi Calm Calm - 0.09 in Rain Rain
7:27 AM 53.6 °F - 50.0 °F 88% 29.95 in 2.0 mi NNW 3.5 mph - 0.12 in Rain Light Rain
7:45 AM 53.6 °F - 50.0 °F 88% 29.95 in 2.0 mi WNW 3.5 mph - 0.13 in Rain Light Rain
7:54 AM 54.0 °F - 50.0 °F 86% 29.95 in 2.0 mi Calm Calm - 0.13 in Rain Light Rain
8:54 AM 48.9 °F - 45.0 °F 86% 29.96 in 2.0 mi WNW 11.5 mph - 0.00 in Rain Light Rain
9:54 AM 48.9 °F - 46.0 °F 90% 29.94 in 5.0 mi NW 6.9 mph - 0.08 in Rain Light Rain
10:45 AM 48.2 °F - 44.6 °F 87% 29.92 in 3.0 mi West 6.9 mph - 0.07 in Rain Rain
10:54 AM 48.9 °F - 45.0 °F 86% 29.93 in 6.0 mi West 5.8 mph - 0.08 in Rain Light Rain
11:15 AM 50.0 °F - 46.4 °F 87% 29.92 in 10.0 mi West 4.6 mph - 0.00 in Rain Light Rain
11:54 AM 50.0 °F - 46.0 °F 86% 29.91 in 10.0 mi West 4.6 mph - 0.00 in Rain Light Rain
12:54 PM 51.1 °F - 46.9 °F 86% 29.87 in 10.0 mi West 4.6 mph - 0.00 in   Overcast
1:41 PM 51.8 °F - 46.4 °F 82% 29.87 in 2.0 mi West 9.2 mph - 0.01 in Rain Light Rain
1:54 PM 51.1 °F - 46.9 °F 86% 29.86 in 2.0 mi West 8.1 mph - 0.04 in Rain Light Rain
2:06 PM 51.8 °F - 46.4 °F 82% 29.86 in 2.0 mi West 8.1 mph - 0.02 in Rain Rain
2:13 PM 51.8 °F - 46.4 °F 82% 29.85 in 2.0 mi West 6.9 mph - 0.03 in Rain Light Rain
2:52 PM 51.8 °F - 46.4 °F 82% 29.84 in 2.0 mi WNW 8.1 mph - 0.05 in   Overcast
2:54 PM 51.1 °F - 46.9 °F 86% 29.84 in 2.0 mi WNW 6.9 mph - 0.05 in   Overcast
3:31 PM 51.8 °F - 46.4 °F 82% 29.83 in 10.0 mi WNW 6.9 mph - N/A   Overcast
3:54 PM 51.1 °F - 46.9 °F 86% 29.85 in 10.0 mi WNW 10.4 mph - N/A   Overcast
4:29 PM 50.0 °F - 46.4 °F 87% 29.83 in 10.0 mi NW 9.2 mph - N/A   Overcast
4:54 PM 50.0 °F - 46.0 °F 86% 29.82 in 10.0 mi NW 4.6 mph - N/A   Overcast
5:54 PM 48.9 °F - 45.0 °F 86% 29.84 in 10.0 mi NW 8.1 mph - N/A   Overcast
6:54 PM 48.9 °F - 44.1 °F 83% 29.86 in 10.0 mi WNW 6.9 mph - N/A   Overcast
7:54 PM 48.0 °F - 44.1 °F 86% 29.83 in 8.0 mi NNW 4.6 mph - N/A   Overcast
8:01 PM 48.2 °F - 44.6 °F 87% 29.83 in 8.0 mi NNW 5.8 mph - N/A   Overcast
8:23 PM 48.2 °F - 44.6 °F 87% 29.82 in 8.0 mi NNW 9.2 mph - N/A   Overcast
8:54 PM 48.0 °F - 44.1 °F 86% 29.83 in 7.0 mi NW 6.9 mph - N/A   Overcast
9:02 PM 48.2 °F - 42.8 °F 82% 29.83 in 7.0 mi NW 8.1 mph - N/A   Overcast
9:54 PM 48.0 °F - 43.0 °F 83% 29.84 in 6.0 mi WSW 4.6 mph - N/A   Haze
10:29 PM 46.4 °F 42.9 °F 42.8 °F 87% 29.85 in 5.0 mi West 6.9 mph - N/A   Overcast
10:36 PM 46.4 °F 42.9 °F 42.8 °F 87% 29.85 in 5.0 mi West 6.9 mph - N/A   Overcast
10:54 PM 46.9 °F - 43.0 °F 86% 29.83 in 5.0 mi West 4.6 mph - N/A   Mostly Cloudy
11:14 PM 46.4 °F 45.2 °F 42.8 °F 87% 29.82 in 5.0 mi West 3.5 mph - N/A   Mostly Cloudy
11:34 PM 46.4 °F 43.5 °F 42.8 °F 87% 29.83 in 5.0 mi West 5.8 mph - N/A   Overcast
11:54 PM 46.9 °F - 43.0 °F 86% 29.83 in 5.0 mi WSW 6.9 mph - N/A   Overcast